Вернуться в каталог

APSTAR 9

АктивенСвязьGEO
NORAD 40982·PAYLOAD·🇨🇳 China

Запущен Oct 16, 2015 с Xichang Satellite Launch Center

Loading…

TLE

СвежийSource: Space-Track

Эпоха: Sep 14, 2026, 12:46 UTC

1 40982U 15059A   26257.53197539 -.00000274  00000-0  00000-0 0  9991
2 40982   0.0352  33.5885 0002483 144.6878 148.7586  1.00270691 40001

Отслеживайте APSTAR 9 в реальном времени с AllMySat

Download on the App Store